User: anonymous   Login
Location: Unspecified
(0.0000°N, 0.0000°E)
Time: 20:27:14
(UTC+00:00)
Language:

ESSA 3 - Orbit

View from above orbital plane
View from above orbital plane
View from above satellite
View from above satellite

Ground track
Ground track

The orbit data is extracted from the following two-line orbital elements,

1  2435U 66087A   18263.76620091 -.00000043 +00000-0 -97867-5 0  9993
2  2435 100.9961 313.7812 0063539 298.9762 169.3114 12.56840221383927
Epoch (UTC): 20 September 2018 18:23:19
Eccentricity: 0.0063539
inclination: 100.9961°
perigee height: 1386 km
apogee height: 1485 km
right ascension of ascending node: 313.7812°
argument of perigee: 298.9762°
revolutions per day: 12.56840221
mean anomaly at epoch: 169.3114°
orbit number at epoch: 38392

The dashed part of the orbit path shows where the satellite is in the earth's shadow,  

DLR